This is the latest recevied weather packets stored in our database for station/object N7BTW-13. If no packets are shown the sender has not sent any weather packets the latest 10 day(s).
| Time | Temp. | Humidity | Pressure | Rain* | Wind** | Luminosity | Snow |
|---|---|---|---|---|---|---|---|
| 1787868608 | 27.78° C | 48% | - | 0 mm | - | - | - |
| 1787868011 | 24.44° C | 54% | - | 0 mm | - | - | - |
| 1787867411 | 23.89° C | 55% | - | 0 mm | - | - | - |
| 1787866807 | 24.44° C | 55% | - | 0 mm | - | - | - |
| 1787866213 | 24.44° C | 54% | - | 0 mm | - | - | - |
| 1787865611 | 25° C | 53% | - | 0 mm | - | - | - |
| 1787865007 | 25° C | 53% | - | 0 mm | - | - | - |
| 1787864409 | 24.44° C | 55% | - | 0 mm | - | - | - |
| 1787863808 | 25° C | 52% | - | 0 mm | - | - | - |
| 1787863214 | 25° C | 52% | - | 0 mm | - | - | - |
| 1787862607 | 25.56° C | 52% | - | 0 mm | - | - | - |
| 1787862008 | 25.56° C | 52% | - | 0 mm | - | - | - |
| 1787861409 | 26.11° C | 51% | - | 0 mm | - | - | - |
| 1787860807 | 26.11° C | 51% | - | 0 mm | - | - | - |
| 1787860207 | 24.44° C | 54% | - | 0 mm | - | - | - |
| 1787859607 | 23.89° C | 56% | - | 0 mm | - | - | - |
| 1787859009 | 25° C | 54% | - | 0 mm | - | - | - |
| 1787858407 | 25° C | 53% | - | 0 mm | - | - | - |
| 1787857809 | 25° C | 54% | - | 0 mm | - | - | - |
| 1787857214 | 22.78° C | 58% | - | 0 mm | - | - | - |
| 1787856606 | 25° C | 54% | - | 0 mm | - | - | - |
| 1787856011 | 24.44° C | 55% | - | 0 mm | - | - | - |
| 1787855407 | 24.44° C | 56% | - | 0 mm | - | - | - |
| 1787854809 | 23.89° C | 56% | - | 0 mm | - | - | - |
| 1787854206 | 23.89° C | 56% | - | 0 mm | - | - | - |
* Rain latest hour (hover to see other rain measurements)
** Current wind speed in m/s (hover to see current wind gust speed)